Regional Weather Roundup
Issued by NWS Charleston, SC

Current Version | Previous Version | Graphics & Text | Print | Product List | Glossary On
Versions: 1 2 3 4 5 6 7 8 9 10 11 12 13 14 15 16 17 18 19 20 21 22 23 24 25 26 27 28 29 30 31 32 33 34 35 36 37 38 39 40 41 42 43 44 45 46 47 48 49 50
000 ASUS42 KCHS 211628 RWRCHS REGIONAL WEATHER ROUNDUP NATIONAL WEATHER SERVICE CHARLESTON SC 1200 PM EDT FRI JUL 21 2017 NOTE: "FAIR" INDICATES FEW OR NO CLOUDS BELOW 12,000 FEET WITH NO SIGNIFICANT WEATHER AND/OR OBSTRUCTIONS TO VISIBILITY. NOT ALL STATIONS ARE QUALITY CONTROLLED. USE DATA WITH CAUTION... ESPECIALLY DEWPOINT OBSERVATIONS. SCZ027-030-031-034>040-042>050-211700- ...SOUTHEAST SOUTH CAROLINA... CITY SKY/WX TMP DP RH WIND PRES REMARKS N CHARLESTON MOSUNNY 89 72 56 SW7 30.06S HX 96 WATERFRONT PRK N/A 86 75 69 CALM 30.05S HX 95 JOHNS ISLAND FAIR 88 79 74 S12 30.07S HX 102 PINOPOLIS N/A 84 73 70 CALM 29.99F HX 91 MONCKS CORNER FAIR 88 70 55 SW5 30.05F HX 92 SUMMERVILLE FAIR 88 73 62 CALM 30.06F HX 96 BEAUFORT MCAS MOSUNNY 90 77 65 SE3 30.07S HX 103 BEAUFORT ARPT FAIR 86 75 70 SW9 30.06F HX 95 HILTON HEAD IS SUNNY 86 75 70 S12 30.08S HX 95 WALTERBORO SUNNY 88 73 62 SW3 30.06F HX 96 ALLENDALE NOT AVBL ...SOUTHERN MIDLANDS AND PEE DEE... CITY SKY/WX TMP DP RH WIND PRES REMARKS GEORGETOWN FAIR 88 72 58 S6 30.06F HX 94 KINGSTREE FAIR 88 73 62 S3 30.05S HX 96 ORANGEBURG SUNNY 87 74 64 SW7 30.06S HX 95 BARNWELL FAIR 90 77 66 CALM 30.05F HX 102 AIKEN FAIR 88 73 62 E5 30.08F HX 96 MANNING FAIR 88 66 48 MISG 30.05F HX 90 COLUMBIA MOSUNNY 89 74 60 VRB5 30.04S HX 98 SUMTER SUNNY 88 74 64 SW5 30.03S HX 97 FLORENCE SUNNY 88 76 67 SW8 30.04F HX 99 MYRTLE BEACH SUNNY 90 73 58 VRB5 30.06S HX 98 N MYRTLE BEACH SUNNY 86 74 67 S12 30.05S HX 94 $$ GAZ063-065-086>088-099>101-113>116-118-119-134>141-150-211700- ...SOUTHEAST GEORGIA... CITY SKY/WX TMP DP RH WIND PRES REMARKS SAVANNAH ARPT MOSUNNY 90 74 59 VRB6 30.07S HX 99 HUNTER AAF SUNNY 88 74 63 S6 30.05S HX 97 FORT STEWART SUNNY 87 76 68 S6 30.05S HX 97 STATESBORO SUNNY 90 78 67 SE3 30.06F HX 103 SYLVANIA SUNNY 89 80 74 SE3 30.06F HX 105 CLAXTON FAIR 89 78 69 CALM 30.06S HX 103 ...CSRA...CENTRAL AND FAR SOUTHEAST GEORGIA... CITY SKY/WX TMP DP RH WIND PRES REMARKS THOMSON SUNNY 92 73 53 W5 30.10S HX 100 AUGUSTA-BUSH SUNNY 90 77 65 SE3 30.04S HX 103 AUGUSTA-DANIEL SUNNY 90 72 55 CALM 30.06S HX 97 SWAINSBORO FAIR 90 77 66 S3 30.06F HX 102 VIDALIA SUNNY 90 77 66 S5 30.06F HX 102 EASTMAN FAIR 92 64 38 CALM 30.07F HX 94 HAZLEHURST FAIR 90 78 66 CALM 30.05F HX 104 ALMA SUNNY 89 75 63 S6 30.07S HX 99 WAYCROSS SUNNY 91 82 74 S6 30.07F HX 112 JESUP NOT AVBL BAXLEY FAIR 90 81 74 SE6 30.06F HX 108 BRUNSWICK SUNNY 90 77 66 NE3 30.08S HX 102 SAINT SIMONS SUNNY 89 75 63 SE7 30.07F HX 99 $$ SCZ027-028-034-036>038-045-046-048>050-GAZ119-141-211700- ...LAKE AND SUPPLEMENTAL COASTAL OBSERVATIONS... STATION/POSITION TIME TEMP WIND PRES WAVE SWELL AIR SEA DIR/SP/G HT/PER HT/PER/DIR (UTC) (F) (DEG/KT/KT) (MB) (FT/S) (FT/S/D) WINYAH BAY 1530 85 260/ 5 1018.0S LAKE MURRAY 1620 87 190/ 3/ 5 1016.3S ACE BASIN NERRS 1530 88 CALM 1018.0S FORT PULASKI 1600 85 86 190/ 5/ 10 1018.5 SAPELO ISLAND 1600 90 CALM 1018.0 $$ ANZ835-935-AMZ111-154-330-350-352-354-370-450-454-472-211700- ...C-MAN AND BUOY OBSERVATIONS... STATION/POSITION TIME TEMP WIND PRES WAVE SWELL AIR SEA DIR/SP/G HT/PER HT/PER/DIR (UTC) (F) (DEG/KT/KT) (MB) (FT/S) (FT/S/D) BUOY 41004 1610 82 84 210/ 8/ 10 1018.4 BUOY 41008 1550 81 83 180/ 4/ 4 1018.7R 2/ 8 2/100/ 8 FOLLY BEACH CMAN 1600 84 190/ 10/ 11 1019.0R CAPERS NEARSHORE 1608 82 84 200/ 10/ 12 1018.2F FRIPP NEARSHORE 1608 83 85 200/ 10/ 12 1018.2F STATION/POSITION TIME TEMP WIND PRES WAVE SWELL AIR SEA DIR/SP/G HT/PER HT/PER/DIR (UTC) (F) (DEG/KT/KT) (MB) (FT/S) (FT/S/D) 5E ST. MARYS GA 1600 84 N/A 2/ 8 FRYING PAN BUOY 1610 82 84 250/ 12/ 14 1017.9 BUOY 41025 1550 83 85 240/ 12/ 14 1017.0R 3/ 5 2/140/ 8 CAPE LOOKOUT NC 1600 83 220/ 9/ 12 1016.8S BUOY 41002 1550 82 84 220/ 10/ 10 1019.4R 3/ 8 3/120/ 8 BUOY 41010 1610 82 85 260/ 6/ 8 1018.9 ST AUGUSTINE FL 1600 82 82 70/ 2/ 3 1019.5S $$

USA.gov is the U.S. government's official web portal to all federal, state and local government web resources and services.